ALSIM01 RPVE-RPLL

Flight info

Callsign ALSIM01
Flight time 0h 39m
Altitude 22000
Route MINOR B473 LAIYA
Aircraft A20N/M-V/N

Departure

Time 2026-04-25 20:51
Airport Godofredo P. Ramos Airport (RPVE)

Arrival

Time 2026-04-25 21:31
Airport Ninoy Aquino International Airport (RPLL)
Time Latitude Longitude Altitude Speed Heading
2026-04-25 20:29 11.92689 121.96446 12 ft 0 kts 152°
2026-04-25 20:36 11.92689 121.96445 12 ft 0 kts 152°
2026-04-25 20:37 11.92690 121.96445 12 ft 0 kts 152°
2026-04-25 20:38 11.92691 121.96444 12 ft 0 kts 152°
2026-04-25 20:38 11.92692 121.96443 12 ft 0 kts 151°
2026-04-25 20:39 11.92693 121.96443 12 ft 0 kts 151°
2026-04-25 20:39 11.92693 121.96442 12 ft 0 kts 151°
2026-04-25 20:40 11.92694 121.96442 12 ft 0 kts 151°
2026-04-25 20:42 11.92703 121.96437 12 ft 3 kts 150°
2026-04-25 20:42 11.92726 121.96423 12 ft 3 kts 153°
2026-04-25 20:43 11.92749 121.96424 12 ft 3 kts 208°
2026-04-25 20:43 11.92763 121.96442 12 ft 0 kts 253°
2026-04-25 20:46 11.92737 121.96407 12 ft 12 kts 230°
2026-04-25 20:46 11.92687 121.96343 12 ft 8 kts 240°
2026-04-25 20:46 11.92656 121.96285 12 ft 10 kts 243°
2026-04-25 20:46 11.92637 121.96214 12 ft 10 kts 300°
2026-04-25 20:47 11.92704 121.96172 12 ft 11 kts 333°
2026-04-25 20:47 11.92780 121.96132 12 ft 12 kts 331°
2026-04-25 20:47 11.92785 121.96063 12 ft 11 kts 247°
2026-04-25 20:47 11.92749 121.95984 12 ft 12 kts 243°
2026-04-25 20:48 11.92705 121.95899 12 ft 13 kts 242°
2026-04-25 20:48 11.92658 121.95809 12 ft 14 kts 243°
2026-04-25 20:48 11.92611 121.95714 12 ft 15 kts 243°
2026-04-25 20:48 11.92560 121.95615 12 ft 16 kts 242°
2026-04-25 20:49 11.92510 121.95512 12 ft 16 kts 243°
2026-04-25 20:49 11.92458 121.95406 12 ft 16 kts 243°
2026-04-25 20:49 11.92403 121.95298 12 ft 17 kts 243°
2026-04-25 20:49 11.92348 121.95187 12 ft 17 kts 243°
2026-04-25 20:50 11.92294 121.95091 12 ft 10 kts 228°
2026-04-25 20:50 11.92245 121.95047 12 ft 10 kts 227°
2026-04-25 20:50 11.92253 121.95009 12 ft 4 kts 35°
2026-04-25 20:50 11.92276 121.95042 12 ft 6 kts 62°
2026-04-25 20:51 11.92395 121.95281 13 ft 74 kts 63°
2026-04-25 20:51 11.92728 121.95952 14 ft 134 kts 65°
2026-04-25 20:51 11.93179 121.96858 364 ft 148 kts 65°
2026-04-25 20:51 11.93649 121.97784 1003 ft 148 kts 65°
2026-04-25 20:52 11.94109 121.98691 1667 ft 146 kts 65°
2026-04-25 20:52 11.94422 121.99311 1959 ft 153 kts 65°
2026-04-25 20:52 11.95123 122.00713 2432 ft 177 kts 65°
2026-04-25 20:52 11.95719 122.01897 2757 ft 200 kts 62°
2026-04-25 20:53 11.96666 122.03013 3250 ft 219 kts 40°
2026-04-25 20:53 11.98045 122.03818 3776 ft 237 kts 30°
2026-04-25 20:53 11.99566 122.04585 4257 ft 255 kts 29°
2026-04-25 20:53 12.01188 122.05391 4952 ft 263 kts 29°
2026-04-25 20:54 12.02842 122.06216 5771 ft 266 kts 29°
2026-04-25 20:54 12.04501 122.07051 6553 ft 270 kts 29°
2026-04-25 20:54 12.06207 122.07912 7338 ft 274 kts 29°
2026-04-25 20:54 12.07917 122.08777 8095 ft 279 kts 28°
2026-04-25 20:55 12.09667 122.09661 8826 ft 284 kts 28°
2026-04-25 20:55 12.11452 122.10564 9544 ft 289 kts 28°
2026-04-25 20:55 12.13258 122.11477 10225 ft 295 kts 28°
2026-04-25 20:55 12.15143 122.12429 10658 ft 310 kts 28°
2026-04-25 20:56 12.17135 122.13437 10994 ft 328 kts 27°
2026-04-25 20:56 12.17354 122.13547 11028 ft 330 kts 27°
2026-04-25 20:56 12.17650 122.13697 11072 ft 333 kts 27°
2026-04-25 20:56 12.18007 122.13878 11125 ft 336 kts 27°
2026-04-25 20:57 12.20138 122.14957 11416 ft 353 kts 27°
2026-04-25 20:57 12.21492 122.15642 11591 ft 363 kts 27°
2026-04-25 20:57 12.22948 122.16379 11844 ft 371 kts 27°
2026-04-25 20:57 12.24942 122.17390 12342 ft 375 kts 27°
2026-04-25 20:58 12.25474 122.17659 12489 ft 376 kts 27°
2026-04-25 20:58 12.27827 122.18851 13141 ft 379 kts 27°
2026-04-25 20:58 12.30197 122.20053 13756 ft 382 kts 27°
2026-04-25 20:59 12.32607 122.21271 14359 ft 385 kts 26°
2026-04-25 20:59 12.35169 122.22115 14876 ft 390 kts
2026-04-25 20:59 12.37897 122.22015 15397 ft 395 kts 348°
2026-04-25 20:59 12.40434 122.21007 15894 ft 399 kts 329°
2026-04-25 21:00 12.42761 122.19418 16427 ft 402 kts 325°
2026-04-25 21:00 12.43550 122.18861 16601 ft 403 kts 325°
2026-04-25 21:00 12.49757 122.14494 17924 ft 412 kts 325°
2026-04-25 21:01 12.52147 122.12827 18424 ft 414 kts 325°
2026-04-25 21:01 12.54537 122.11162 18918 ft 416 kts 325°
2026-04-25 21:01 12.56946 122.09485 19409 ft 419 kts 325°
2026-04-25 21:01 12.59341 122.07817 19886 ft 421 kts 325°
2026-04-25 21:02 12.61773 122.06125 20355 ft 423 kts 324°
2026-04-25 21:02 12.64221 122.04421 20818 ft 425 kts 324°
2026-04-25 21:02 12.66702 122.02695 21270 ft 427 kts 324°
2026-04-25 21:02 12.69160 122.00983 21684 ft 430 kts 324°
2026-04-25 21:03 12.71653 121.99249 21884 ft 431 kts 324°
2026-04-25 21:03 12.74110 121.97538 21894 ft 430 kts 324°
2026-04-25 21:03 12.75884 121.96301 21898 ft 430 kts 324°
2026-04-25 21:03 12.77595 121.95109 21900 ft 430 kts 324°
2026-04-25 21:04 12.78769 121.94290 21901 ft 430 kts 324°
2026-04-25 21:04 12.79387 121.93860 21900 ft 430 kts 324°
2026-04-25 21:05 12.81871 121.92129 21901 ft 430 kts 324°
2026-04-25 21:05 12.84348 121.90402 21903 ft 430 kts 324°
2026-04-25 21:05 12.86842 121.88664 21904 ft 430 kts 324°
2026-04-25 21:05 12.89321 121.86935 21904 ft 430 kts 324°
2026-04-25 21:06 12.91790 121.85214 21903 ft 430 kts 324°
2026-04-25 21:06 12.94258 121.83491 21905 ft 430 kts 324°
2026-04-25 21:06 12.96760 121.81745 21905 ft 430 kts 324°
2026-04-25 21:06 12.98389 121.80608 21907 ft 430 kts 324°
2026-04-25 21:07 13.01704 121.78294 21910 ft 430 kts 324°
2026-04-25 21:07 13.04190 121.76559 21909 ft 430 kts 324°
2026-04-25 21:07 13.06646 121.74841 21907 ft 431 kts 324°
2026-04-25 21:07 13.09128 121.73106 21904 ft 430 kts 324°
2026-04-25 21:08 13.11617 121.71368 21900 ft 430 kts 324°
2026-04-25 21:08 13.14114 121.69624 21897 ft 430 kts 324°
2026-04-25 21:08 13.16569 121.67908 21902 ft 430 kts 324°
2026-04-25 21:08 13.19060 121.66167 21901 ft 430 kts 324°
2026-04-25 21:09 13.24001 121.62710 21871 ft 430 kts 324°
2026-04-25 21:09 13.26443 121.61000 21328 ft 430 kts 324°
2026-04-25 21:09 13.27478 121.60275 21073 ft 429 kts 324°
2026-04-25 21:10 13.28532 121.59537 20816 ft 428 kts 324°
2026-04-25 21:10 13.30963 121.57834 20242 ft 425 kts 324°
2026-04-25 21:10 13.32068 121.57059 19974 ft 423 kts 324°
2026-04-25 21:11 13.33234 121.56242 19696 ft 422 kts 324°
2026-04-25 21:11 13.35634 121.54560 19126 ft 419 kts 325°
2026-04-25 21:11 13.38030 121.52882 18559 ft 415 kts 325°
2026-04-25 21:12 13.40426 121.51204 17986 ft 412 kts 325°
2026-04-25 21:12 13.42767 121.49564 17420 ft 409 kts 325°
2026-04-25 21:12 13.45110 121.47920 17040 ft 400 kts 325°
2026-04-25 21:12 13.46617 121.46864 16837 ft 393 kts 325°
2026-04-25 21:13 13.49590 121.44779 16556 ft 376 kts 325°
2026-04-25 21:13 13.51709 121.43294 16374 ft 364 kts 325°
2026-04-25 21:13 13.53767 121.41850 16204 ft 352 kts 325°
2026-04-25 21:13 13.55758 121.40452 16027 ft 341 kts 324°
2026-04-25 21:14 13.57687 121.39091 15913 ft 328 kts 324°
2026-04-25 21:14 13.59521 121.37740 15909 ft 321 kts 323°
2026-04-25 21:14 13.61326 121.36388 15913 ft 321 kts 323°
2026-04-25 21:14 13.63133 121.35033 15920 ft 320 kts 323°
2026-04-25 21:15 13.64926 121.33694 15931 ft 320 kts 323°
2026-04-25 21:15 13.66745 121.32337 15927 ft 320 kts 323°
2026-04-25 21:15 13.68555 121.30987 15932 ft 321 kts 323°
2026-04-25 21:15 13.70372 121.29633 15927 ft 321 kts 323°
2026-04-25 21:16 13.72175 121.28288 15930 ft 321 kts 323°
2026-04-25 21:16 13.73986 121.26937 15926 ft 321 kts 323°
2026-04-25 21:16 13.75796 121.25587 15804 ft 323 kts 323°
2026-04-25 21:16 13.77615 121.24229 15380 ft 323 kts 323°
2026-04-25 21:17 13.79441 121.22868 14981 ft 321 kts 323°
2026-04-25 21:17 13.81241 121.21526 14594 ft 319 kts 323°
2026-04-25 21:17 13.83038 121.20186 14211 ft 317 kts 323°
2026-04-25 21:17 13.84818 121.18858 13827 ft 315 kts 323°
2026-04-25 21:18 13.86593 121.17532 13441 ft 314 kts 323°
2026-04-25 21:18 13.88340 121.16227 13059 ft 312 kts 323°
2026-04-25 21:18 13.90113 121.14902 12671 ft 310 kts 323°
2026-04-25 21:18 13.91854 121.13602 12295 ft 309 kts 323°
2026-04-25 21:19 13.93586 121.12308 11918 ft 307 kts 323°
2026-04-25 21:19 13.95318 121.11012 11529 ft 306 kts 323°
2026-04-25 21:19 13.97022 121.09739 11144 ft 305 kts 324°
2026-04-25 21:19 13.98757 121.08441 10745 ft 305 kts 324°
2026-04-25 21:20 14.00454 121.07172 10366 ft 303 kts 324°
2026-04-25 21:20 14.01040 121.06735 10242 ft 303 kts 324°
2026-04-25 21:20 14.03851 121.04632 9635 ft 299 kts 324°
2026-04-25 21:20 14.05532 121.03374 9282 ft 297 kts 325°
2026-04-25 21:21 14.07215 121.02116 8927 ft 295 kts 325°
2026-04-25 21:21 14.08860 121.00887 8576 ft 293 kts 325°
2026-04-25 21:21 14.10508 120.99654 8224 ft 291 kts 325°
2026-04-25 21:21 14.12143 120.98431 7879 ft 289 kts 325°
2026-04-25 21:22 14.13765 120.97214 7534 ft 287 kts 325°
2026-04-25 21:22 14.15379 120.96004 7321 ft 279 kts 325°
2026-04-25 21:22 14.16920 120.94860 7236 ft 270 kts 327°
2026-04-25 21:22 14.18508 120.93842 7010 ft 265 kts 332°
2026-04-25 21:23 14.20110 120.92893 6690 ft 264 kts 332°
2026-04-25 21:23 14.21702 120.91956 6381 ft 262 kts 332°
2026-04-25 21:23 14.23275 120.91031 6071 ft 261 kts 332°
2026-04-25 21:23 14.24850 120.90101 5848 ft 255 kts 332°
2026-04-25 21:24 14.26357 120.89211 5685 ft 247 kts 332°
2026-04-25 21:24 14.27821 120.88345 5587 ft 236 kts 332°
2026-04-25 21:24 14.29244 120.87510 5325 ft 234 kts 333°
2026-04-25 21:24 14.30657 120.86687 5053 ft 232 kts 332°
2026-04-25 21:25 14.32069 120.85864 4786 ft 230 kts 333°
2026-04-25 21:25 14.33454 120.85055 4511 ft 229 kts 333°
2026-04-25 21:25 14.34850 120.84238 4247 ft 227 kts 333°
2026-04-25 21:25 14.36215 120.83440 3982 ft 226 kts 333°
2026-04-25 21:26 14.37598 120.82633 3727 ft 225 kts 335°
2026-04-25 21:26 14.39057 120.82204 3406 ft 220 kts
2026-04-25 21:26 14.40352 120.82834 3308 ft 200 kts 51°
2026-04-25 21:26 14.41032 120.84012 3339 ft 183 kts 65°
2026-04-25 21:27 14.41587 120.85120 3181 ft 166 kts 63°
2026-04-25 21:27 14.42172 120.86238 3082 ft 188 kts 62°
2026-04-25 21:27 14.42819 120.87440 2855 ft 195 kts 61°
2026-04-25 21:27 14.43487 120.88657 2547 ft 194 kts 61°
2026-04-25 21:28 14.44156 120.89866 2278 ft 193 kts 61°
2026-04-25 21:28 14.44812 120.91049 2041 ft 186 kts 61°
2026-04-25 21:28 14.45446 120.92189 1770 ft 179 kts 61°
2026-04-25 21:28 14.46043 120.93263 1538 ft 165 kts 60°
2026-04-25 21:29 14.46578 120.94223 1444 ft 145 kts 60°
2026-04-25 21:29 14.47071 120.95110 1310 ft 141 kts 60°
2026-04-25 21:29 14.47557 120.95982 1161 ft 140 kts 61°
2026-04-25 21:29 14.48043 120.96854 983 ft 139 kts 60°
2026-04-25 21:30 14.48523 120.97716 671 ft 139 kts 60°
2026-04-25 21:30 14.48994 120.98580 445 ft 138 kts 60°
2026-04-25 21:30 14.49466 120.99427 261 ft 136 kts 60°
2026-04-25 21:30 14.49779 120.99992 122 ft 135 kts 60°
2026-04-25 21:31 14.50326 121.00980 35 ft 92 kts 61°
2026-04-25 21:31 14.50557 121.01401 45 ft 43 kts 62°
2026-04-25 21:31 14.50655 121.01578 47 ft 24 kts 60°
2026-04-25 21:31 14.50753 121.01705 49 ft 21 kts 43°
2026-04-25 21:32 14.50866 121.01798 51 ft 19 kts 37°
2026-04-25 21:32 14.50971 121.01882 51 ft 18 kts 41°
2026-04-25 21:32 14.51076 121.01922 54 ft 15 kts 32°
2026-04-25 21:32 14.51160 121.01896 55 ft 13 kts 316°